Regional Weather Roundup
Issued by NWS Jackson, KY

Home | Current Version | Previous Version | Text Only | Print | Product List | Glossary On
Versions: 1 2 3 4 5 6 7 8 9 10 11 12 13 14 15 16 17 18 19 20 21 22 23 24 25 26 27 28 29 30 31 32 33 34 35 36 37 38 39 40 41 42 43 44 45 46 47 48 49 50
000
ASUS43 KJKL 300410
RWRJKL

EAST KENTUCKY HOURLY WEATHER ROUNDUP
NATIONAL WEATHER SERVICE JACKSON KY
1200 AM EDT MON MAR 30 2015

NOTE: "FAIR" INDICATES FEW OR NO CLOUDS BELOW 12,000 FEET WITH
NO SIGNIFICANT WEATHER AND/OR OBSTRUCTIONS TO VISIBILITY.

* THESE REPORTS ARE NOT UNDER NWS QUALITY CONTROL AND MAY NOT
  REPORT WEATHER SUCH AS PRECIPITATION AND FOG.

KYZ079-080-083-085-087-088-110-112-115-119-120-300500
...EASTERN KENTUCKY...

CITY           SKY/WX    TMP DP  RH WIND       PRES   REMARKS
JACKSON        CLOUDY    52  20  28 VRB7      30.02S
LONDON         MOCLDY    54  22  28 SW12G20   30.07R
SOMERSET*      CLOUDY    52  27  37 SW7       30.08S
MONTICELLO*    PTCLDY    55  35  46 SW16      30.10F
MIDDLESBORO*   PTCLDY    55  26  33 SW14G29   30.09R
HAZARD APT*    CLOUDY    54  23  30 SW8       30.03R
BLACK MTN*       N/A     39  23  52 S12         N/A  WCI  32
PIKEVILLE APT* MOCLDY    50  14  23 CALM      30.01S
BIG SANDY*     CLOUDY    52  14  21 SW5       30.01S
MOREHEAD APT*  LGT RAIN  52  25  35 SW14G20   30.01R
$$

KYZ035-036-041-042-044-050-067-078-099-300500
...CENTRAL KENTUCKY...

CITY           SKY/WX    TMP DP  RH WIND       PRES   REMARKS
MT STERLING*   CLOUDY    52  23  32 W14G22    30.00F
FLEMING/MASON* RAIN      45  34  65 W7        30.01R
DANVILLE*      CLOUDY    54  32  43 SW12G18   30.04S
RICHMOND*      CLOUDY    54  21  28 SW13G18   30.02S
LEXINGTON      CLOUDY    55  32  41 SW20G32   30.00S
FRANKFORT      CLOUDY    54  35  48 SW17G29   29.99R
$$

KYZ091>093-OHZ055-061-077-WVZ005-015-034-035-042-300500
...SOUTHERN OHIO/WEST VIRGINIA...

CITY           SKY/WX    TMP DP  RH WIND       PRES   REMARKS
COVINGTON      CLOUDY    45  38  76 SW7       29.98F
COLUMBUS       CLOUDY    42  38  85 S6        29.96F
DAYTON         MOCLDY    42  34  73 SW12      29.93F
WILMINGTON     CLOUDY    40  35  83 S3        29.96F
HUNTINGTON     CLOUDY    52  10  18 SW10      29.96F
CHARLESTON     CLOUDY    52   7  16 SW9       29.98F
PINEVILLE*     MOCLDY    41  26  54 MISG      30.08F
BECKLEY        PTCLDY    44   8  23 S8        30.01F
BLUEFIELD      PTCLDY    44  10  25 S3        30.04S
$$

VAZ002-007-008-TNZ017-027-036-066-071-300500
...SOUTHWEST VIRGINIA/EAST TENNESSEE...

CITY           SKY/WX    TMP DP  RH WIND       PRES   REMARKS
WISE*          PTCLDY    46  14  27 SW10      30.05S
JONESVILLE*    MOCLDY    39  27  60 CALM      30.11S
ABINGDON*      PTCLDY    42  17  36 CALM      30.09F
BRISTOL        PTCLDY    45  23  42 CALM      30.10F
KNOXVILLE      PTCLDY    54  26  34 SW17      30.10F
OAK RIDGE      CLOUDY    56  25  30 VRB7      30.15R
CROSSVILLE     PTCLDY    52  31  44 S10G17    30.13R
NASHVILLE      CLOUDY    55  39  54 S5        30.10F
$$

...KEY TO REMARKS...
VSB - VISIBILITY IN MILES
WCI - WIND CHILL INDEX
HX  - HEAT INDEX

$$


USA.gov is the U.S. government's official web portal to all federal, state and local government web resources and services.